Location: Home
(42.5358°N, 72.7383°W)
Time: 21:30:53
(UTC-05:00)

Vanguard 2 Rocket - Pass Details

Date: 09 December 2021
Orbit: 554 x 3325 km, 32.9° (Epoch: 21 January)

Event Time Altitude Azimuth Distance (km) Brightness Sun altitude
Rises 22:53:45 0° 260° (W) 4,639 - -67.8°
Reaches altitude 10° 22:58:29 10° 238° (WSW) 4,184 - -68.3°
Maximum altitude 23:04:08 15° 209° (SSW) 4,361 - -68.7°
Drops below altitude 10° 23:11:09 10° 181° (S) 5,361 - -69.3°
Sets 23:19:08 0° 162° (SSE) 6,893 - -69.7°
